Theta_e
322 323 324 323 323 324 325 326 326 326 325 326 327 327 326 325 325 324 323 323 324 326 326 327 326 326 325 325 324 324 324 324 324 324 326 327 327 326 325 325 325 326 327 327 328 329 329 329 329 330 330 330 330 330 329 328 328 328 328 328 328 328 327 327 326 325 325 325 326 325 325 324 323 323 322 322 321 321 321 321 321 321 322 322 322 322
322 323 323 322 321 321 323 324 325 324 324 325 327 328 329 328 326 324 324 324 323 325 326 325 325 324 324 324 323 323 323 323 323 323 324 325 325 325 325 325 324 325 325 326 327 327 327 328 328 329 329 330 329 328 328 327 327 327 327 327 327 327 327 327 328 327 327 327 327 327 327 327 326 325 324 324 324 323 323 322 322 322 322 322 322 321
323 323 322 321 320 320 321 323 325 325 324 324 325 327 329 329 327 326 324 323 323 325 326 325 325 325 324 324 324 323 322 322 323 323 323 324 324 325 325 325 324 324 325 325 325 326 326 326 326 327 327 327 327 325 325 325 326 327 327 327 327 327 327 328 328 327 328 327 328 328 328 327 327 327 327 327 327 326 326 325 325 324 323 323 323 322
322 322 321 321 321 321 321 323 325 325 325 325 325 327 328 327 327 328 326 324 324 324 325 325 325 324 324 323 323 323 323 322 323 323 323 324 323 324 325 325 325 324 324 325 325 325 325 325 325 325 326 325 324 323 322 322 323 324 326 326 327 327 327 327 328 328 328 328 327 328 327 327 326 326 327 327 327 327 327 327 327 327 326 325 324 324
320 319 320 321 321 321 322 323 324 324 325 325 325 326 327 325 326 326 325 324 323 323 324 324 325 324 323 324 323 322 322 322 323 323 323 323 324 324 324 324 325 325 324 324 324 324 324 324 325 325 325 325 324 323 322 320 320 320 321 323 325 327 327 327 327 327 327 327 327 327 327 326 326 326 327 326 326 326 327 327 328 328 328 327 327 326
319 318 319 320 321 321 322 323 323 323 324 324 324 324 324 324 324 324 324 324 324 325 324 324 326 326 323 323 323 322 322 322 322 322 323 323 323 323 323 323 324 324 324 324 323 323 323 323 324 324 325 325 325 324 323 321 320 320 320 319 321 323 325 326 327 327 327 327 327 327 327 326 326 327 326 326 326 326 326 326 327 327 327 327 326 327
318 317 318 319 320 322 322 322 322 322 324 324 324 323 323 324 325 325 325 326 327 326 324 324 326 326 323 323 322 322 322 322 322 322 322 323 323 323 323 323 323 324 324 324 324 323 323 322 322 323 323 324 324 323 323 322 321 321 320 319 319 319 319 321 322 324 325 326 326 327 327 326 326 326 326 326 326 324 324 325 326 326 326 326 325 325
317 317 318 318 319 321 321 321 321 321 323 324 323 324 324 324 325 326 326 327 326 325 325 325 325 326 325 324 321 321 322 321 321 322 322 321 322 323 322 323 323 323 324 324 324 324 323 323 322 322 322 322 322 321 320 321 321 320 320 320 320 320 319 318 318 320 321 322 323 325 326 327 327 327 326 326 326 324 324 325 325 325 325 325 324 324
317 318 318 318 319 320 320 320 320 322 322 323 324 324 324 323 325 324 325 326 325 324 326 326 325 327 326 324 322 322 322 321 320 321 322 321 321 322 322 323 323 323 324 323 324 324 323 323 323 323 323 322 321 321 320 321 321 321 322 322 322 323 323 322 321 320 321 321 321 323 326 327 327 327 327 326 326 325 324 325 324 324 324 323 323 323
317 317 317 318 319 319 319 319 320 321 321 322 324 324 323 324 325 324 323 324 324 325 326 325 325 326 326 323 322 322 321 322 321 320 321 321 321 323 323 323 323 323 323 323 324 324 323 323 323 323 323 323 323 323 323 323 323 323 323 323 324 324 324 324 324 323 322 322 322 323 324 325 326 326 325 325 325 324 324 324 323 323 322 321 321 321
316 316 316 318 318 318 317 318 320 320 320 322 324 324 324 324 324 323 322 321 324 326 325 324 324 325 325 322 320 321 321 322 322 322 322 322 322 323 323 323 324 324 323 323 324 324 323 323 323 324 324 323 323 323 323 323 323 324 324 324 324 324 323 324 324 324 324 323 323 323 323 324 324 323 323 323 323 322 322 322 322 321 321 321 320 320
316 317 317 318 318 317 317 317 318 319 320 322 323 322 323 323 323 322 320 320 324 326 325 323 322 324 325 322 319 320 321 322 324 324 324 323 322 323 324 324 324 324 324 324 324 324 324 324 324 324 323 323 323 322 322 322 322 323 323 323 323 323 323 323 323 324 325 325 324 324 323 323 322 322 322 322 321 321 322 321 321 322 322 322 321 321
316 316 317 317 317 318 318 318 318 319 320 321 321 321 322 323 322 322 322 322 323 324 324 323 323 325 325 321 320 322 322 322 322 322 322 322 321 322 323 323 323 324 324 324 324 324 323 323 323 323 323 323 323 322 322 322 323 323 322 323 322 322 322 322 322 323 324 324 324 323 323 323 322 322 322 322 322 322 321 321 321 322 323 323 323 323
316 316 316 318 319 318 319 318 318 319 319 319 320 321 321 322 322 321 321 321 321 321 322 322 324 325 324 321 320 321 321 321 320 320 320 320 320 321 321 322 323 323 323 323 323 323 323 323 322 322 322 322 322 322 321 322 322 322 322 322 322 322 321 321 322 322 322 322 322 322 322 322 321 321 321 321 321 321 321 321 321 322 322 323 324 323
315 315 316 318 318 318 318 318 318 318 318 318 319 320 320 320 320 320 320 319 319 319 320 321 323 323 322 320 319 319 318 319 319 319 319 319 319 319 320 321 321 321 322 323 323 323 323 323 322 321 322 322 322 322 322 322 322 322 322 322 322 322 321 321 321 321 321 320 320 320 320 320 320 320 320 320 320 320 320 320 320 320 321 321 322 322
314 314 315 316 317 317 317 317 316 317 318 318 319 320 320 319 318 318 319 319 319 319 319 320 322 321 318 318 318 318 318 316 317 317 317 318 318 319 319 319 319 320 321 321 322 322 322 322 322 321 321 322 322 322 322 322 322 322 322 322 321 321 320 320 320 320 319 319 318 319 319 319 319 319 319 319 319 319 319 319 319 319 319 320 320 321
314 314 315 315 316 316 316 316 316 317 318 319 319 319 319 318 317 319 319 318 318 319 319 318 320 319 317 318 317 318 319 317 317 317 316 317 318 318 319 318 319 319 320 321 320 320 320 321 321 321 321 322 322 322 321 321 321 322 322 322 321 320 320 319 318 318 318 317 318 318 318 318 318 318 318 318 318 318 318 318 319 319 320 320 320 321
315 314 314 315 316 316 315 316 317 316 316 318 318 318 318 316 316 317 318 319 319 319 318 317 318 318 317 319 319 318 319 317 317 317 316 317 318 318 318 319 319 319 320 320 320 320 320 320 320 321 321 321 321 321 321 321 322 322 321 320 320 319 318 318 318 318 318 318 318 318 318 318 318 318 318 318 318 318 318 318 318 318 319 319 320 320
314 313 314 313 315 316 315 316 318 317 315 317 316 316 318 318 317 317 317 319 319 318 318 317 317 317 316 317 317 317 318 317 317 317 317 318 318 318 319 319 319 319 320 320 320 320 320 320 320 320 321 321 321 321 321 321 320 319 318 318 318 318 317 318 318 318 318 318 318 317 317 317 317 317 317 317 317 317 317 317 317 318 318 318 319 319
313 313 314 314 315 316 314 314 317 317 315 315 315 315 317 319 320 318 317 318 318 317 317 317 317 317 316 315 315 315 316 316 316 316 317 318 317 317 319 319 320 320 320 320 320 320 320 321 321 321 321 321 320 320 319 318 317 317 317 317 317 317 317 318 318 318 317 317 317 316 316 317 317 317 317 317 317 317 317 317 317 317 317 317 318 318
313 312 313 314 315 317 315 313 314 317 316 316 316 315 315 316 317 317 316 317 318 318 317 317 316 316 315 315 315 315 315 315 316 317 318 317 316 316 318 319 319 319 319 320 320 320 320 321 320 319 319 318 317 316 316 315 316 316 316 317 317 317 317 317 317 317 317 316 315 315 314 315 315 316 316 317 317 317 317 317 317 317 317 317 317 317
312 312 312 312 313 315 315 313 313 315 316 316 315 315 315 315 315 317 317 317 318 317 317 318 317 316 315 315 314 314 315 315 316 317 317 316 315 316 316 317 317 317 317 318 317 317 317 317 316 316 315 315 315 315 315 315 315 315 315 315 316 316 317 317 317 317 317 316 315 315 314 314 313 313 314 315 316 317 317 317 317 317 317 316 316 316
308 310 311 311 312 312 313 314 317 318 316 315 314 314 315 315 315 316 317 316 316 316 316 317 317 317 315 315 315 314 313 313 313 314 314 314 315 316 316 316 316 316 316 316 315 314 314 314 314 314 313 313 314 314 314 314 314 314 314 314 314 314 315 315 315 316 316 316 316 316 316 315 314 313 312 312 314 316 317 317 317 317 317 317 316 316
306 309 310 310 311 311 310 313 318 318 315 314 314 314 315 315 314 315 316 315 315 316 316 316 316 316 314 314 314 313 312 311 311 312 313 314 315 315 315 315 315 315 315 314 314 313 312 312 312 312 311 311 311 312 311 311 312 312 312 312 312 312 312 312 312 312 313 313 314 314 315 315 315 314 313 311 311 313 315 316 316 316 316 316 317 317
306 307 307 307 308 310 310 311 314 314 312 312 313 313 314 314 314 314 314 313 314 314 314 315 314 314 313 312 311 311 311 311 311 312 313 313 313 313 313 313 313 314 314 313 313 312 311 311 310 310 309 310 310 309 309 309 310 310 310 310 309 309 310 310 310 310 310 310 310 310 312 312 313 314 313 312 311 311 312 314 315 316 316 316 316 316
306 306 306 305 305 307 309 310 310 309 308 309 308 309 312 313 313 313 313 313 314 313 312 313 313 312 311 311 311 311 311 311 311 311 311 311 311 311 311 311 312 312 312 311 311 311 311 310 310 309 308 309 309 308 308 308 308 308 308 308 308 308 308 308 309 309 309 309 309 308 308 309 311 313 313 312 310 310 311 312 314 315 316 316 316 316
306 306 306 306 305 305 306 306 306 306 305 306 307 307 309 310 310 310 309 310 312 312 310 311 312 312 312 311 311 310 310 310 309 309 309 309 309 309 310 310 310 310 310 309 309 309 309 309 309 308 308 308 308 308 307 307 307 307 307 307 307 308 308 309 309 310 310 310 309 308 308 308 310 312 312 311 310 310 311 312 313 314 315 316 316 316
307 306 306 306 306 305 305 305 305 305 305 305 306 306 306 306 306 307 306 306 307 307 306 307 310 310 309 308 308 307 307 307 307 307 307 307 308 308 308 308 308 308 308 308 308 308 307 307 307 307 307 307 307 307 307 307 307 307 307 307 308 309 310 310 311 311 311 310 309 309 308 308 309 311 312 312 310 310 311 312 313 314 315 315 316 316
306 306 306 306 306 306 306 306 305 305 305 305 305 306 306 306 306 306 306 305 306 306 305 306 308 307 306 306 306 305 305 306 306 306 306 306 307 307 307 307 308 308 307 307 307 307 307 307 307 307 307 307 307 307 307 307 307 308 308 309 310 311 310 310 311 311 311 310 310 309 308 309 309 311 312 312 311 310 311 312 313 314 314 314 314 314
306 305 304 304 305 305 305 306 306 306 305 305 305 306 306 306 306 306 306 306 306 306 306 306 307 306 306 306 306 306 306 305 305 306 305 306 306 306 306 306 306 307 307 307 307 307 307 307 307 308 308 308 308 308 308 309 309 310 311 311 311 310 310 311 311 311 310 310 309 309 309 310 311 312 312 312 311 311 311 312 313 314 314 314 313 313
305 305 304 303 304 304 303 304 305 305 306 306 306 306 305 305 305 305 305 305 305 305 305 306 306 306 305 306 306 305 306 305 305 305 305 305 305 305 305 305 305 306 306 306 306 307 307 307 308 308 308 309 309 309 309 310 311 311 312 312 310 309 309 311 311 310 309 309 309 309 310 311 312 312 312 311 311 312 313 313 313 314 314 313 313 312
305 305 303 303 303 302 302 303 303 304 304 305 305 305 305 305 305 304 304 304 304 304 305 305 305 305 305 305 305 305 305 305 305 304 304 305 305 305 305 305 305 306 306 306 307 307 308 308 308 309 309 310 310 310 310 311 312 312 311 311 310 310 310 310 309 308 309 309 310 310 310 311 311 312 312 312 312 312 313 314 314 314 314 314 313 312
305 305 304 303 302 302 302 302 302 302 303 303 303 304 304 304 304 304 303 304 304 304 304 304 304 304 304 305 305 305 305 305 305 304 304 304 305 305 305 305 306 306 306 307 307 308 308 308 308 308 308 308 308 308 308 309 310 310 310 310 311 311 311 310 309 309 310 310 311 311 311 312 312 312 312 312 312 313 313 314 314 313 313 313 313 313
303 304 303 303 302 302 302 301 302 302 302 302 303 304 304 303 303 303 303 303 303 303 304 304 304 304 304 304 304 304 304 304 304 304 304 304 304 305 305 306 306 306 306 306 307 307 307 307 307 306 306 307 307 307 307 308 309 310 311 311 311 311 309 309 310 311 312 312 312 312 312 313 313 313 313 313 313 313 313 313 313 313 313 313 312 312
302 302 302 302 302 302 302 301 301 301 301 301 302 303 303 302 303 303 303 303 303 303 303 303 303 304 304 304 304 304 304 304 304 304 304 304 304 304 304 305 305 305 306 306 307 307 307 307 307 307 307 308 308 308 309 309 310 310 310 310 309 308 308 309 310 311 311 312 312 313 313 313 313 313 313 313 313 313 313 313 313 313 313 313 313 313
301 301 301 301 302 302 302 301 301 301 301 302 303 302 302 302 303 303 303 303 303 303 303 303 303 303 304 304 304 304 304 304 304 304 305 305 305 305 305 305 305 306 307 307 307 308 308 308 308 308 309 309 309 309 309 309 309 308 308 308 307 307 308 309 310 310 311 311 312 312 312 312 312 312 312 312 312 312 312 312 312 313 313 313 313 313
301 301 301 301 301 301 301 301 301 301 301 301 301 301 302 302 302 302 302 301 302 302 302 303 303 303 303 303 303 304 304 303 303 304 304 305 305 305 306 306 307 307 308 308 308 308 308 308 308 308 308 309 309 308 308 308 307 307 307 308 308 308 309 310 310 310 311 311 311 311 311 311 311 311 312 312 312 312 312 312 312 313 313 313 313 313
301 301 301 301 301 301 301 301 301 301 301 300 300 301 301 301 301 302 301 301 301 302 302 302 302 302 303 303 303 303 303 303 303 303 303 304 305 306 307 307 307 307 307 307 307 307 306 306 306 306 307 307 307 307 307 307 307 307 307 308 308 309 309 310 310 310 310 311 311 310 310 310 310 310 310 311 311 311 312 312 312 312 313 313 313 313
302 301 301 301 301 301 301 301 301 301 301 300 300 301 300 300 301 301 301 301 301 301 301 301 301 301 302 302 302 302 303 303 303 303 304 305 306 307 306 306 305 305 305 304 304 304 305 305 305 305 305 305 306 306 306 306 307 307 307 307 308 308 308 309 309 310 310 310 310 309 309 309 309 308 309 309 309 310 310 311 312 312 313 313 313 314
302 302 302 301 301 301 301 301 301 301 301 301 301 301 300 300 300 301 301 301 300 300 300 300 301 301 301 301 301 301 302 302 302 303 303 303 304 305 304 302 301 301 302 302 302 302 303 303 303 304 304 304 305 305 305 306 306 306 306 307 307 307 307 308 308 308 309 309 309 309 308 308 308 308 308 309 309 309 310 310 311 312 312 313 313 313
301 302 301 301 301 301 301 301 301 301 301 301 300 300 300 301 301 301 300 298 296 297 298 298 298 299 298 298 299 300 300 300 300 301 301 300 300 301 301 300 299 299 299 300 300 301 301 301 301 302 302 302 303 304 304 304 305 305 305 305 306 306 306 307 307 307 308 308 308 308 308 308 308 308 308 309 309 309 310 310 311 312 312 313 313 313
300 300 301 301 300 301 301 300 300 301 299 298 298 298 299 301 301 299 296 295 295 297 297 295 296 297 295 294 295 296 296 297 298 299 298 297 297 297 297 298 298 298 298 298 298 299 299 299 299 300 300 301 302 302 303 303 303 303 304 304 304 304 305 306 307 307 307 307 308 308 308 308 308 308 308 309 309 310 310 310 311 311 312 312 313 313
298 298 298 299 299 299 299 299 300 300 299 297 297 297 298 299 297 295 294 294 295 296 295 294 295 295 293 293 294 294 295 296 297 297 297 296 296 296 296 296 296 297 297 297 297 297 298 298 298 297 298 299 300 300 301 302 302 302 302 302 302 303 303 304 305 306 306 306 306 307 307 307 307 307 308 308 309 309 310 310 310 311 312 312 312 312
296 297 296 297 297 297 297 297 298 298 297 296 297 297 296 296 295 294 294 294 294 295 294 293 294 294 293 292 292 293 293 294 295 296 296 296 296 296 296 296 295 295 295 296 295 296 296 296 297 296 296 296 296 297 298 299 300 300 300 300 300 301 302 302 303 303 304 304 305 306 307 307 306 306 307 308 308 309 310 310 310 310 310 310 311 310
295 295 295 295 296 296 296 296 296 296 295 296 296 296 295 294 294 294 293 293 293 293 293 292 293 293 293 292 292 292 292 293 293 294 294 294 294 295 295 295 294 294 294 294 294 294 294 294 295 295 294 294 294 294 295 296 297 298 299 299 299 299 300 301 301 302 302 302 302 303 305 306 306 305 306 307 307 308 308 309 309 308 308 308 308 308
292 293 293 293 293 293 293 294 294 294 294 293 293 292 292 292 293 293 292 291 291 291 291 291 291 292 292 292 291 291 291 291 291 292 292 292 292 292 293 293 293 293 293 293 293 293 293 293 293 293 293 293 293 293 293 294 295 296 297 297 297 298 298 299 300 300 300 299 299 299 302 304 304 304 305 305 305 305 305 305 306 306 306 306 306 306
290 291 292 292 292 292 292 292 292 292 291 290 290 290 291 292 293 292 291 290 290 290 289 290 290 290 291 291 291 290 290 290 289 289 290 291 291 291 291 292 292 292 292 292 291 291 291 291 292 292 292 292 292 292 292 292 293 294 294 295 296 296 297 297 298 298 297 297 297 297 298 299 301 302 302 303 303 302 301 301 301 302 302 303 303 303
290 291 290 290 290 290 290 290 290 290 289 289 290 291 292 293 293 292 290 290 289 289 289 289 289 290 290 291 291 290 290 289 288 288 288 288 288 289 289 290 290 290 290 290 289 289 289 290 290 290 290 290 291 290 290 291 292 292 293 293 294 295 295 296 296 296 295 295 295 296 296 296 297 299 299 299 299 299 298 297 297 298 298 298 299 299
290 290 290 289 289 289 289 289 289 289 289 291 291 291 291 292 292 291 290 290 289 288 288 289 289 289 289 290 290 290 288 288 287 287 287 287 287 288 288 288 288 288 288 288 288 288 288 288 288 288 288 288 289 289 289 289 290 291 291 292 292 293 294 294 295 295 294 294 294 295 295 295 295 296 296 296 295 295 295 294 294 295 295 295 295 296
289 289 289 289 288 288 288 288 288 288 289 290 290 290 290 291 291 290 290 289 289 288 288 288 289 289 288 288 288 287 287 286 285 285 285 285 286 286 286 286 286 286 287 287 286 286 286 286 286 287 287 287 287 287 288 288 289 290 290 291 291 292 292 293 293 293 293 292 292 292 292 292 293 293 294 294 293 293 292 292 292 293 293 293 293 293
288 288 288 287 287 287 287 287 288 288 288 289 289 289 290 290 290 289 289 289 288 288 288 288 288 288 287 286 285 285 285 285 284 284 284 284 285 285 285 285 285 285 286 286 286 285 285 285 286 286 286 286 286 287 287 287 287 288 289 289 290 290 290 291 291 291 291 291 290 289 290 290 291 291 292 292 292 292 291 291 291 291 292 292 292 292
Wind_Speed
12 7 6 10 12 15 15 14 15 13 9 9 9 7 8 6 6 7 8 9 5 5 8 10 12 12 13 11 9 17 23 21 21 18 18 21 22 22 22 22 23 23 24 23 21 21 20 19 19 17 18 21 23 23 23 24 25 25 26 26 26 26 26 26 27 27 28 28 28 29 30 31 31 31 32 32 32 32 32 31 31 31 31 32 33 33
10 8 9 14 16 15 14 13 14 12 13 14 10 7 8 7 6 7 8 8 2 4 6 6 9 12 12 10 9 14 15 14 17 18 19 22 24 25 24 25 26 25 25 23 22 23 23 23 23 22 22 24 26 26 27 28 29 29 28 28 27 27 28 29 29 30 30 31 30 30 31 31 31 31 32 33 32 32 31 31 31 31 32 33 34 34
6 8 12 16 14 12 12 11 12 13 13 13 9 7 8 6 6 8 9 11 3 2 3 5 7 10 10 10 10 12 13 14 19 21 21 23 23 23 25 26 27 26 26 25 24 24 25 26 27 28 28 30 31 32 31 31 31 30 30 31 31 31 31 31 31 32 32 33 32 32 32 31 31 31 32 32 32 31 31 31 32 32 32 33 34 35
5 8 14 14 10 11 13 12 12 12 11 10 8 7 8 7 6 6 8 11 7 3 4 5 8 8 8 11 11 14 18 20 23 26 25 25 24 24 24 26 26 26 27 27 27 27 27 27 28 30 31 32 34 35 35 34 33 33 34 34 34 35 35 34 34 34 34 33 33 33 32 31 30 30 30 31 32 33 33 34 34 34 34 34 35 36
7 8 12 12 11 12 13 12 12 10 8 11 12 10 9 9 9 8 8 9 8 7 5 4 8 9 8 11 12 12 17 20 25 27 27 28 29 28 28 27 28 28 28 28 27 27 28 28 29 31 31 31 32 34 35 36 37 38 38 37 37 36 36 36 36 36 35 34 34 33 33 32 31 32 32 33 34 34 35 35 35 35 34 35 36 37
10 11 10 11 12 13 12 11 12 10 7 9 11 13 13 11 10 10 10 7 6 8 5 3 7 9 8 12 14 11 12 17 20 21 23 28 30 31 32 32 32 32 32 31 30 29 29 29 30 31 31 31 32 34 35 36 37 37 38 39 39 39 38 38 37 37 36 36 35 35 36 36 36 36 36 37 37 37 37 37 36 35 34 35 36 37
7 11 11 9 10 12 12 10 11 11 8 8 8 12 14 12 10 10 10 6 5 6 3 5 7 10 7 9 11 10 12 16 16 15 18 25 28 29 32 33 33 34 35 35 36 35 35 34 33 33 34 34 35 36 36 37 37 37 38 38 39 40 41 41 41 40 40 40 39 38 39 40 41 41 42 41 40 40 40 40 39 38 37 37 37 37
5 11 11 10 9 10 10 9 10 11 8 6 4 6 9 12 13 12 10 7 5 5 4 2 4 8 8 7 8 9 11 14 13 12 14 20 25 28 31 32 33 35 36 36 37 37 38 38 38 38 39 40 40 40 40 40 40 40 41 40 39 39 40 41 42 43 44 44 43 43 42 43 44 44 45 44 43 42 42 41 42 42 41 41 40 40
7 11 12 12 11 8 8 8 8 10 8 5 3 4 5 8 10 10 9 7 5 6 7 4 4 6 9 7 7 9 12 15 14 12 11 14 21 25 27 30 32 35 36 36 36 35 36 37 38 38 39 39 39 40 41 41 40 40 40 39 38 38 38 38 39 41 43 43 43 44 44 44 44 45 45 44 43 43 42 42 43 43 43 43 42 42
5 5 6 9 10 7 7 7 7 9 9 6 5 4 1 1 2 4 4 5 6 6 7 8 8 7 11 8 7 9 11 13 13 11 10 14 21 24 25 28 30 33 34 34 35 35 36 36 35 34 34 35 35 35 36 37 37 37 38 38 38 37 36 36 35 37 40 41 42 42 43 43 44 44 44 44 44 44 43 44 44 44 44 44 44 44
8 7 5 3 7 8 7 6 7 9 8 3 4 2 1 2 2 1 1 1 4 7 9 13 14 11 12 9 8 9 9 10 10 9 10 13 19 23 25 26 27 29 32 33 33 34 36 35 33 32 31 32 32 30 31 32 32 33 34 34 35 35 35 35 35 35 37 39 41 41 42 43 43 44 44 45 46 45 45 46 46 46 46 45 46 46
10 8 4 2 4 5 7 6 6 8 5 5 4 2 0 2 1 2 1 2 3 7 10 15 16 14 13 10 5 6 9 10 9 8 8 9 14 21 23 24 25 26 27 30 32 33 34 32 31 31 31 32 30 29 29 29 29 29 29 29 30 30 31 33 34 34 35 37 39 40 41 42 42 42 43 44 45 45 45 45 45 45 45 45 45 45
6 7 6 3 4 3 5 5 5 5 4 5 4 3 3 2 2 2 3 4 5 7 7 10 12 11 13 13 8 9 10 8 7 8 9 10 12 17 19 21 24 24 26 29 30 31 32 31 30 30 31 30 29 28 27 28 28 28 28 27 28 28 28 29 30 32 33 34 36 38 39 40 40 41 42 43 44 44 44 44 44 44 44 44 44 44
3 6 8 4 2 4 6 5 5 5 5 7 6 5 5 4 4 5 5 5 6 8 7 8 9 7 8 10 12 15 14 12 16 21 22 20 19 19 17 17 19 21 23 26 29 30 31 30 29 30 30 29 28 28 27 27 27 27 27 27 28 28 27 26 27 28 29 30 31 33 35 36 37 38 39 40 42 42 42 43 43 43 43 43 44 44
5 6 7 7 5 8 10 9 7 4 4 7 6 5 6 5 5 6 5 6 6 7 7 8 7 6 5 5 8 13 16 20 27 32 30 30 32 31 26 20 19 21 22 24 26 29 30 30 29 30 31 30 28 28 28 27 26 26 27 27 27 28 27 26 26 26 26 27 28 28 30 32 33 34 35 36 37 37 38 39 40 41 42 42 43 43
6 6 5 12 13 12 11 11 9 5 4 4 4 4 6 7 7 6 6 7 4 5 5 5 5 4 3 7 6 6 9 14 21 26 26 29 34 36 33 30 28 26 26 24 23 24 27 28 28 29 31 30 29 28 27 26 25 25 26 26 27 28 27 26 25 25 25 25 26 26 27 28 29 31 32 33 33 33 34 35 36 38 39 40 41 41
5 4 1 5 11 13 14 13 12 9 5 2 3 5 6 6 6 6 8 7 5 8 6 4 6 4 3 9 8 7 10 8 10 14 16 20 27 29 30 32 31 28 29 29 28 28 28 28 27 28 30 29 27 26 26 26 25 24 25 25 26 26 24 22 21 21 22 22 22 22 22 24 25 27 28 30 31 31 32 33 35 36 37 37 38 38
3 4 4 2 7 8 9 9 8 10 9 4 3 7 4 1 1 2 5 5 6 10 7 7 11 8 5 6 5 9 13 12 11 11 11 13 17 20 25 30 31 29 29 29 29 29 28 27 26 27 27 26 25 25 24 22 21 21 21 21 22 21 19 18 17 18 18 18 18 17 17 18 20 22 24 26 27 28 30 32 33 35 36 37 37 37
1 4 6 6 8 4 2 1 3 9 10 4 0 3 3 2 2 3 3 5 7 8 6 9 12 9 7 6 4 7 11 10 10 10 10 10 11 14 19 22 25 27 27 27 27 28 28 27 26 25 25 24 21 19 17 15 15 16 17 18 18 17 16 15 15 15 15 14 13 12 13 14 16 18 21 23 24 26 28 30 31 33 35 35 36 37
2 1 4 4 5 1 2 1 3 7 7 1 3 3 2 1 4 4 2 3 6 8 7 8 9 6 6 7 9 11 11 10 10 9 8 8 10 15 19 22 22 21 22 25 25 24 21 18 16 15 13 11 10 10 9 10 11 11 12 13 13 13 11 9 8 9 9 8 9 10 12 13 15 16 19 20 22 25 27 28 29 31 33 34 35 36
3 3 3 1 2 1 0 2 5 7 5 1 2 4 3 1 2 2 2 3 4 5 5 7 8 5 3 5 9 12 12 11 10 9 7 5 8 11 9 11 9 2 1 3 4 2 1 1 4 5 6 8 10 11 12 12 12 12 12 11 11 10 7 6 6 7 8 9 10 12 13 15 16 17 18 19 21 23 25 26 28 29 30 32 33 34
0 3 4 3 2 2 5 4 5 7 4 3 5 6 5 4 3 4 5 5 4 4 4 7 8 5 1 2 4 6 6 4 5 5 4 7 14 18 16 13 13 16 15 11 10 10 8 8 9 11 13 15 16 17 18 18 18 17 17 16 16 14 13 12 14 15 15 16 16 16 18 19 20 21 21 21 21 22 22 23 25 26 27 29 30 31
1 1 2 5 5 4 7 4 1 2 3 4 5 4 4 4 4 6 7 4 4 5 4 7 9 6 3 5 7 7 7 9 13 12 10 12 16 18 19 20 19 18 16 13 13 14 15 16 17 18 20 21 21 22 23 24 24 24 24 24 24 23 21 20 21 22 23 24 24 24 25 25 25 25 25 25 25 24 23 22 23 23 25 27 28 28
2 1 1 3 4 4 7 4 3 4 1 3 4 4 5 5 5 7 6 3 2 3 3 5 7 4 1 4 7 9 11 14 17 17 14 14 17 18 18 19 19 19 18 18 19 21 22 22 23 25 26 27 27 27 28 29 30 29 30 30 30 30 29 28 27 27 28 29 30 30 30 30 29 28 28 28 28 27 26 25 25 25 25 27 27 28
2 1 1 2 3 3 4 2 2 3 2 1 2 3 5 6 7 8 5 4 5 7 7 7 6 4 3 6 9 11 13 14 13 15 17 16 18 20 21 20 20 20 21 24 27 30 30 30 32 34 35 35 35 36 37 36 35 34 34 34 35 36 36 35 34 34 33 32 33 33 34 34 33 31 30 30 30 30 29 28 28 28 28 28 28 29
1 1 2 1 2 3 2 2 1 0 1 1 3 5 4 3 6 6 4 5 7 7 9 9 7 7 7 10 13 12 11 11 12 14 17 18 19 23 26 25 24 24 27 32 36 39 41 42 43 45 44 44 43 43 43 41 40 40 39 38 38 38 38 39 38 37 36 36 36 36 37 36 34 32 31 31 31 31 31 30 30 30 30 29 29 29
0 2 3 4 5 6 6 7 5 2 2 4 6 8 6 4 6 6 4 5 4 4 7 7 5 6 8 10 12 9 8 11 13 15 18 20 22 24 27 27 27 29 34 40 45 48 50 51 52 52 51 49 48 47 45 42 41 41 41 40 38 37 37 37 36 36 36 37 38 38 39 38 36 33 32 31 31 31 31 31 30 30 30 30 30 30
1 3 5 7 10 10 10 11 11 8 7 8 9 11 9 8 9 8 7 8 7 6 8 8 5 6 7 11 14 13 10 11 12 13 17 23 27 29 30 30 32 34 37 41 45 49 51 52 51 50 48 46 45 43 42 40 38 37 38 38 35 33 33 33 33 34 35 36 37 38 39 39 38 36 34 32 31 31 31 31 31 30 30 30 30 30
1 4 5 7 10 12 11 12 12 11 10 10 11 12 12 11 11 11 11 11 10 9 9 9 10 11 11 12 15 17 15 14 16 20 24 28 32 34 34 34 36 38 39 40 43 45 45 45 45 45 43 41 39 38 37 37 35 34 35 35 32 30 29 30 31 32 34 35 37 39 39 39 39 39 37 35 32 32 31 31 30 31 31 31 31 30
2 4 6 6 8 11 12 12 13 13 12 12 13 14 14 13 13 13 13 12 12 13 12 12 16 17 13 11 14 20 23 23 25 28 29 30 32 34 34 34 35 38 39 40 41 41 41 41 41 41 39 39 38 37 35 35 35 34 34 32 31 30 30 29 29 31 33 35 37 40 41 40 40 40 39 38 35 32 31 31 31 31 33 33 33 31
3 4 6 3 5 9 11 11 12 13 14 14 14 14 13 13 14 13 12 12 13 14 15 16 18 16 11 11 15 24 30 27 24 25 27 29 31 32 32 33 34 36 37 37 38 40 41 41 41 39 37 36 36 35 34 33 31 30 29 30 31 33 33 31 32 33 35 37 39 41 42 42 42 41 41 40 36 32 31 31 31 33 34 35 34 33
2 4 5 2 4 8 10 11 12 13 13 14 14 14 13 13 13 13 13 13 13 14 15 15 14 11 9 11 14 19 23 21 18 22 26 27 30 30 30 31 33 35 35 35 34 32 30 31 33 33 31 31 30 30 29 27 26 26 29 31 33 34 34 34 35 37 38 39 40 41 42 42 42 42 41 40 36 33 32 32 33 34 35 36 36 36
2 2 3 3 4 7 10 12 11 10 10 10 10 12 15 16 17 16 15 15 15 14 12 11 11 10 10 11 13 16 17 16 17 22 25 25 26 28 28 29 30 31 30 28 25 19 18 21 24 26 27 28 27 27 28 28 30 31 30 30 30 31 33 35 36 36 37 38 39 40 40 41 41 41 41 39 37 34 34 35 36 37 38 38 38 38
4 4 4 4 3 7 12 12 9 9 9 8 7 11 16 18 19 18 16 16 16 14 13 13 13 13 13 13 14 16 16 17 21 27 29 28 28 29 30 30 28 28 28 26 24 23 25 28 31 32 30 28 26 26 27 28 30 30 29 29 31 33 35 35 35 34 34 35 36 38 38 39 39 40 40 39 37 35 36 37 39 40 40 39 39 39
6 6 5 4 3 6 9 9 10 11 10 9 10 13 15 16 16 17 18 19 19 18 18 18 17 17 16 16 19 21 23 27 32 36 38 38 36 33 31 31 31 30 29 27 25 26 26 27 28 28 25 24 22 22 23 24 25 28 31 33 35 36 36 36 34 33 33 33 33 34 35 35 37 38 39 40 39 39 39 40 40 41 41 39 39 40
8 7 5 5 5 6 6 7 10 11 9 8 9 9 10 11 11 13 16 18 19 20 19 18 18 17 15 17 22 26 30 34 35 37 40 39 36 33 33 32 31 26 20 16 15 15 16 16 17 18 18 19 20 21 23 25 27 29 32 34 36 37 37 36 35 35 34 33 33 33 33 34 36 38 40 41 42 42 42 41 40 40 39 40 40 41
10 8 6 6 6 6 8 10 10 11 11 10 10 9 10 10 11 12 13 14 15 16 16 15 16 17 16 19 26 31 33 30 22 23 31 34 33 32 28 21 16 12 8 7 7 8 9 11 12 14 16 18 21 24 27 28 30 32 33 33 35 36 36 36 36 36 36 36 36 35 33 32 34 36 39 40 41 42 42 41 40 39 38 38 39 40
12 11 8 7 7 7 9 9 8 10 11 11 13 15 15 18 18 14 13 13 10 12 15 15 15 16 15 16 23 27 24 17 9 12 23 28 23 18 12 5 3 4 5 7 8 10 12 14 16 19 20 21 23 25 27 28 29 30 31 32 34 35 36 36 36 36 37 38 38 37 35 33 32 34 37 39 40 41 41 41 40 40 38 37 38 39
13 11 10 10 9 8 9 9 8 9 9 10 12 13 17 23 21 13 12 11 6 9 14 15 14 15 14 16 19 18 13 9 8 7 10 10 6 4 4 3 4 6 9 13 15 17 19 20 21 22 22 22 23 24 25 26 27 29 30 32 34 35 36 36 36 37 37 38 37 37 36 35 35 35 37 38 39 40 39 39 39 39 38 38 38 39
10 9 9 11 10 10 12 10 8 7 7 9 11 11 16 20 15 10 11 7 6 13 17 15 12 11 11 15 15 10 6 6 5 6 11 10 7 7 9 11 13 13 15 17 18 20 20 19 20 20 20 21 22 23 24 25 26 28 29 30 31 33 33 35 36 36 37 37 37 37 36 36 36 36 37 38 39 39 38 37 37 37 38 39 39 39
6 6 7 10 11 12 15 12 9 8 6 5 7 13 18 17 10 8 8 6 11 18 20 19 18 18 19 19 13 6 9 13 11 11 13 13 11 13 14 15 17 17 16 16 16 18 19 19 18 18 18 19 21 22 24 25 26 28 28 28 29 30 31 32 33 33 35 36 37 37 37 36 35 35 36 37 37 38 38 37 35 35 37 38 39 39
4 4 5 7 8 9 10 9 9 8 2 7 14 20 17 8 5 5 8 12 16 19 20 21 20 20 22 22 17 15 21 23 17 14 17 17 15 16 17 18 19 19 18 18 17 18 19 20 19 18 17 18 20 22 23 24 26 27 27 28 28 29 29 30 31 32 34 35 36 37 37 36 35 34 35 36 35 36 37 36 33 34 36 37 38 38
2 3 5 6 5 6 7 8 9 7 2 10 15 15 8 2 3 8 12 16 17 18 20 22 21 21 23 25 23 24 28 27 23 21 23 21 19 19 20 21 22 21 21 21 20 19 19 19 19 19 18 18 18 19 21 23 24 25 26 26 27 28 29 29 30 30 32 33 36 37 37 36 35 33 33 33 33 33 35 34 33 33 34 36 37 37
1 2 5 4 2 3 6 7 4 3 4 10 10 5 2 4 11 13 11 12 14 16 19 22 24 25 25 24 25 28 29 28 28 29 28 25 23 23 23 23 23 23 22 21 20 19 18 16 16 17 18 18 18 17 18 20 22 23 24 24 25 26 27 28 28 28 29 29 32 35 36 35 34 32 31 30 30 30 31 32 32 32 32 33 34 35
1 3 6 6 4 3 6 9 10 13 18 15 6 3 9 13 11 8 7 10 13 16 20 23 27 30 30 27 27 29 29 28 30 30 27 24 24 24 23 23 22 22 22 20 19 17 16 15 14 14 15 17 17 17 16 16 18 20 21 22 23 25 25 26 26 26 26 26 27 30 32 33 31 29 27 26 26 27 28 29 30 30 30 29 30 30
9 12 10 7 7 7 10 15 16 16 20 20 18 22 25 17 6 5 10 13 16 20 23 25 27 30 31 30 28 28 28 27 28 28 26 23 22 22 22 21 20 20 20 19 18 16 15 14 13 13 13 14 16 16 16 16 16 18 19 20 21 23 24 24 24 24 24 24 25 26 27 28 27 25 24 23 22 22 24 25 26 26 26 26 26 26
8 9 6 5 6 7 9 10 10 13 22 31 35 35 26 13 8 11 15 17 20 24 26 27 27 29 30 29 28 28 28 26 25 25 25 22 20 20 20 19 18 18 18 18 17 16 15 14 13 13 13 14 15 16 17 17 17 17 18 19 20 21 22 22 22 22 22 22 23 24 24 25 23 22 22 21 20 19 20 21 22 23 22 22 22 22
5 6 5 4 5 6 9 13 17 26 35 34 27 20 14 11 13 18 21 23 26 27 28 28 27 27 28 28 27 28 28 26 22 22 23 21 18 18 17 16 15 15 15 15 15 15 14 14 13 13 13 14 15 16 17 18 18 18 18 18 19 20 20 20 19 19 20 20 21 21 21 22 22 21 20 20 21 20 20 20 20 21 20 20 20 20
9 10 9 8 8 10 13 15 18 23 24 18 14 17 20 19 19 22 26 29 31 31 31 30 28 26 26 27 26 26 26 23 20 20 21 19 17 17 15 13 12 12 13 13 14 14 14 14 13 13 14 14 15 16 17 18 18 18 18 18 19 20 20 19 18 17 17 18 19 19 19 20 21 20 19 19 19 19 19 19 19 19 18 18 19 18
11 11 9 8 9 10 10 11 14 13 10 12 20 26 25 20 20 25 29 30 32 32 30 29 28 28 26 25 24 24 24 21 19 18 17 15 14 14 13 11 10 10 11 11 12 13 13 13 13 13 13 14 15 16 17 18 18 18 18 18 19 19 20 20 19 18 17 17 18 19 19 19 19 19 18 17 16 16 17 17 17 16 15 15 15 16
13 13 11 8 9 12 15 21 23 18 14 20 28 29 25 24 25 27 29 31 31 29 26 25 26 27 25 23 22 22 22 20 18 16 14 12 11 10 10 10 10 10 10 11 11 12 13 13 13 13 14 14 16 16 17 18 18 18 18 18 18 19 20 20 20 19 18 18 17 17 17 17 17 16 16 15 14 14 14 14 14 13 13 12 12 12
Wind_Direction
182 184 197 206 213 211 205 202 213 213 210 246 265 268 272 265 257 250 249 252 215 216 235 231 241 245 247 248 238 242 243 244 250 245 233 234 240 244 245 244 242 241 242 242 238 235 236 237 239 241 242 245 247 249 252 257 261 263 264 265 265 266 265 264 261 260 258 257 257 257 258 259 261 262 262 262 263 265 267 269 270 271 271 272 272 272
185 199 210 211 216 217 211 207 216 218 211 229 245 257 271 271 276 290 292 284 195 186 250 257 260 257 251 253 257 260 254 243 244 244 238 236 234 234 239 245 246 243 242 242 239 235 236 236 237 238 238 241 247 253 257 261 264 263 262 261 262 263 263 263 262 261 261 261 262 263 264 265 266 266 265 265 266 267 268 268 268 269 269 269 269 270
200 216 217 214 216 219 223 215 215 220 217 226 233 237 252 253 269 285 289 293 300 143 270 290 277 268 265 262 255 259 265 263 257 252 247 244 241 233 231 238 244 244 242 241 241 239 240 241 242 243 243 245 252 257 260 262 263 262 260 259 259 259 259 259 259 259 260 262 266 269 271 271 269 268 268 269 269 268 267 265 265 265 265 265 267 268
203 222 222 219 217 215 222 218 214 222 224 228 227 227 241 236 245 263 264 276 283 264 266 282 279 269 265 266 258 252 258 264 261 257 254 250 249 244 236 235 238 240 241 241 241 242 244 245 246 248 249 252 256 258 259 259 259 258 258 258 258 257 257 256 256 256 258 261 266 269 270 269 268 268 268 268 268 266 265 264 263 262 262 264 265 267
222 226 214 210 217 220 221 217 215 221 226 230 226 223 234 229 223 231 245 265 275 270 265 284 284 270 250 255 259 253 253 254 251 250 250 247 247 248 246 242 238 239 241 242 242 242 243 244 246 249 252 254 255 257 259 259 259 259 258 259 258 258 257 257 256 256 257 260 261 262 262 259 259 261 262 263 266 267 266 266 266 266 266 266 267 267
234 234 214 198 207 217 221 221 217 215 223 232 225 222 229 232 228 230 236 247 259 254 226 197 265 266 238 239 248 247 243 245 243 240 241 240 241 242 243 243 241 241 243 245 246 245 245 244 245 247 250 251 252 255 259 261 261 262 261 261 260 259 258 258 258 258 259 260 259 258 254 251 253 256 260 264 269 273 273 274 274 274 273 271 270 269
231 234 233 219 206 207 215 222 217 214 225 234 219 218 227 235 239 238 234 227 238 255 220 167 239 266 253 231 238 238 236 240 237 235 237 237 237 236 238 239 238 240 242 245 247 247 247 246 245 245 246 247 249 253 258 260 261 262 263 263 262 261 261 260 260 259 260 260 260 259 255 253 254 257 262 267 272 275 276 276 276 276 275 275 274 272
205 221 229 228 217 209 212 219 211 201 218 241 211 193 216 229 235 237 235 228 229 263 283 159 210 268 265 237 241 245 250 252 242 236 236 235 235 234 235 234 234 236 238 242 244 246 247 248 248 248 247 248 251 254 257 258 259 260 261 262 262 261 262 262 261 260 260 260 260 260 259 257 257 259 263 268 271 274 274 274 274 274 275 275 275 274
198 213 220 218 221 220 214 222 207 192 213 232 137 130 194 220 232 237 237 239 238 246 255 212 176 265 263 235 237 242 249 259 257 250 245 241 239 236 233 231 231 233 234 237 242 245 247 249 251 253 253 254 255 257 257 256 257 259 260 261 262 262 262 262 261 260 259 260 260 260 259 259 260 262 265 268 270 271 270 270 271 272 273 274 274 274
213 223 235 222 223 225 216 219 205 198 217 208 131 116 194 153 191 238 235 231 238 235 237 215 188 235 263 246 228 232 235 247 257 258 254 252 249 246 241 235 232 232 231 231 239 245 247 249 252 256 258 258 258 258 259 258 257 257 257 259 261 262 262 262 261 260 259 259 259 259 259 260 261 263 265 267 267 268 268 268 268 269 270 272 272 273
276 303 325 248 235 239 232 227 214 213 213 153 87 91 348 21 69 15 26 167 238 237 232 224 205 215 257 251 221 235 239 235 249 253 248 249 247 246 245 239 236 234 228 227 233 242 247 249 252 255 258 259 259 259 259 259 259 258 257 258 260 262 263 263 261 260 259 258 258 258 259 261 263 265 266 266 266 266 265 265 266 267 268 269 270 271
271 285 300 306 311 281 244 234 233 233 200 110 77 121 100 325 348 8 39 151 235 239 225 225 216 214 245 250 215 238 243 225 230 240 242 244 240 241 241 238 238 236 228 225 229 237 244 249 253 254 256 257 258 259 259 260 262 262 262 262 264 266 267 266 264 262 259 257 257 259 260 261 264 266 266 265 266 266 264 264 264 264 264 265 265 266
244 248 232 248 334 305 240 224 227 245 197 145 140 162 183 219 203 215 214 201 231 242 226 214 210 213 242 254 245 247 249 236 244 253 250 252 249 245 241 237 238 236 231 228 229 234 240 247 253 255 256 257 259 262 263 263 263 265 268 268 269 272 275 274 270 266 262 259 259 259 260 262 263 264 264 264 264 264 264 263 262 261 260 260 260 260
234 232 210 204 293 223 218 212 206 215 202 189 171 171 195 203 217 225 222 230 237 244 234 195 196 217 247 252 238 239 247 249 259 261 258 262 267 265 255 245 243 241 239 236 233 234 237 242 251 257 259 260 262 266 268 266 266 269 271 271 273 278 282 281 277 274 270 266 265 263 263 264 265 265 265 265 265 265 264 263 262 261 259 258 257 258
227 234 194 180 178 184 203 218 212 200 204 209 190 189 208 204 228 233 221 235 243 252 235 191 194 211 214 235 222 222 229 227 237 247 249 252 256 259 260 254 250 249 249 242 234 235 238 242 252 260 260 260 264 269 270 269 270 272 272 274 277 281 286 287 285 283 280 277 274 272 270 269 269 269 269 269 269 268 266 265 264 263 261 259 258 258
228 250 196 192 191 177 195 217 211 210 245 232 186 201 222 217 231 250 248 247 261 280 245 194 223 224 223 268 249 220 231 220 225 236 237 237 241 245 250 252 250 248 246 242 239 244 247 247 253 260 261 261 265 270 272 273 274 274 274 277 280 285 288 290 290 289 287 284 281 277 275 273 272 271 271 270 270 268 268 267 266 265 264 263 261 260
211 257 356 197 204 192 197 206 197 196 213 203 184 212 222 225 233 249 263 267 271 271 250 212 252 258 269 275 251 244 269 256 236 239 233 229 230 232 238 244 247 244 240 240 245 253 255 253 254 258 262 264 267 272 276 279 280 278 278 281 284 287 289 292 294 292 288 285 282 279 277 276 275 274 273 273 272 271 270 270 269 268 267 265 264 262
174 258 309 265 234 219 201 203 207 215 216 197 206 219 210 304 319 224 255 256 243 253 245 228 245 245 247 258 222 226 250 252 246 247 245 236 229 228 232 237 240 241 240 241 245 250 252 255 257 257 261 266 271 277 281 283 284 285 287 289 291 293 294 296 296 290 285 281 280 280 280 281 280 279 278 278 277 276 274 272 271 270 268 267 266 265
112 267 267 225 228 252 68 106 251 254 243 217 42 249 227 253 232 199 232 242 235 250 251 239 244 239 233 250 250 235 242 250 250 247 250 245 233 233 235 237 239 240 242 242 243 245 248 255 261 262 264 270 277 283 287 291 295 298 299 300 300 300 298 296 291 284 280 280 285 293 296 295 293 289 286 283 282 280 278 276 275 273 271 270 268 267
132 240 262 211 197 189 50 77 220 246 247 192 41 328 287 256 216 208 233 247 241 250 254 248 246 232 218 234 254 257 260 272 277 277 271 256 248 244 234 231 237 242 246 244 240 241 247 258 271 275 276 283 295 301 307 318 325 324 315 309 306 301 294 293 293 288 284 290 304 312 314 312 308 303 298 293 288 284 282 281 280 277 274 272 271 268
163 197 237 298 32 64 222 183 191 218 231 205 237 246 241 249 268 287 267 227 233 244 248 252 248 232 198 205 227 244 254 260 266 275 280 293 323 317 279 239 238 258 341 242 223 197 137 41 358 348 340 331 324 321 323 330 337 338 332 326 321 315 309 311 318 320 318 318 318 319 323 323 319 316 311 306 300 294 289 286 284 282 280 277 274 272
228 220 221 249 282 229 233 216 202 218 210 188 223 228 229 231 242 263 246 212 212 229 234 255 256 244 271 293 261 260 271 291 316 327 338 359 7 10 15 25 35 44 50 52 47 42 35 18 356 345 340 334 328 327 327 327 327 325 324 323 321 318 316 314 315 317 319 320 318 318 321 322 321 320 316 312 309 305 302 296 290 287 285 282 279 277
223 274 265 249 241 244 258 262 241 219 192 195 215 214 231 242 230 242 248 237 231 233 233 257 262 246 250 297 307 321 341 352 349 354 6 7 13 21 21 19 20 19 19 17 11 3 353 347 341 335 333 332 329 329 328 326 324 321 319 318 317 315 314 312 311 311 312 313 313 313 315 315 316 317 315 313 311 309 309 308 303 297 292 289 287 285
192 254 296 267 270 271 264 274 16 33 96 206 224 206 209 219 218 231 252 280 258 232 237 261 264 249 246 313 314 323 331 332 334 348 3 2 5 11 6 2 360 354 350 345 340 338 335 332 329 325 324 323 321 320 319 318 318 317 316 316 315 315 314 312 312 311 311 310 310 309 309 309 311 311 312 312 310 308 308 309 309 307 303 299 296 292
229 261 13 329 313 292 257 259 336 5 39 188 257 266 249 238 243 247 251 259 249 240 245 254 262 262 305 321 308 305 312 315 323 344 353 349 346 344 340 342 343 335 329 325 322 321 319 317 316 315 314 314 313 313 313 312 311 310 310 309 310 310 310 310 310 310 309 308 308 307 306 305 306 306 307 309 308 307 306 306 306 306 306 304 301 296
272 219 107 96 278 267 247 243 228 222 319 326 308 292 281 254 255 261 257 248 248 243 241 245 258 267 277 289 287 295 320 326 324 331 334 331 330 325 320 322 325 323 320 317 314 311 310 309 309 309 309 308 307 308 308 307 306 305 304 304 304 305 305 306 306 306 305 304 304 303 302 302 302 302 302 305 306 305 304 304 303 302 302 303 302 299
64 242 183 187 228 239 247 260 266 263 261 279 280 271 268 263 260 268 275 264 275 285 261 263 289 289 281 285 290 308 334 322 312 315 318 317 314 310 307 307 309 309 308 307 306 305 304 303 303 304 304 302 302 303 303 303 303 302 301 301 300 300 301 301 302 301 300 300 300 299 298 298 299 299 299 302 304 303 301 301 300 298 297 297 299 299
146 255 214 209 231 237 244 258 271 277 269 265 265 261 259 257 252 252 254 257 273 289 276 279 296 285 280 287 292 296 295 289 289 293 297 298 296 294 293 292 292 292 292 292 292 293 293 294 296 296 295 295 296 297 298 298 298 297 296 297 297 296 297 297 298 297 296 296 296 295 294 294 295 296 298 301 303 302 300 298 296 294 292 292 293 296
200 258 227 217 240 248 248 255 263 267 264 259 256 254 253 248 240 240 246 247 250 256 262 272 273 265 265 271 277 279 276 271 271 273 276 278 279 280 280 279 278 279 278 277 277 278 279 281 282 284 286 289 290 291 292 292 291 290 291 294 296 298 298 298 298 296 295 295 295 293 292 292 292 292 295 299 301 299 298 296 292 289 287 287 288 292
193 255 246 230 247 256 251 250 251 253 256 255 252 251 251 251 249 249 252 251 249 253 258 261 260 258 257 258 264 270 270 268 269 270 270 269 270 271 271 270 269 269 270 269 270 271 271 272 273 275 279 284 286 286 286 287 287 288 291 294 298 302 304 303 300 297 296 295 292 291 291 291 291 292 294 296 297 296 294 292 288 284 282 282 283 286
196 253 271 263 268 268 261 255 250 246 250 253 253 252 252 256 257 255 254 253 252 254 252 250 254 257 256 251 254 261 266 268 269 267 265 264 264 264 265 265 265 267 268 267 267 268 268 269 267 266 270 277 281 282 284 286 287 289 292 296 299 301 303 301 299 296 294 291 287 288 290 291 292 294 296 297 296 293 290 287 283 279 278 278 279 282
213 272 296 300 272 270 268 264 261 257 256 255 254 255 253 253 252 247 245 242 242 249 252 250 253 255 252 251 251 253 258 262 262 262 262 262 263 264 264 264 265 266 267 267 267 268 273 274 268 263 265 272 277 282 287 290 292 293 294 296 297 298 298 296 292 290 289 287 288 289 291 293 295 297 298 297 295 291 287 286 282 279 278 278 278 281
221 253 282 269 262 270 268 266 268 270 264 255 247 243 242 243 244 244 245 244 243 247 251 252 252 251 250 252 253 252 251 251 255 260 263 265 267 267 266 267 267 269 271 273 275 281 292 292 288 285 285 286 290 293 294 293 293 295 295 296 295 293 291 291 291 291 291 291 292 293 293 295 297 298 297 295 293 290 288 287 286 284 283 282 282 282
241 243 258 259 260 271 274 280 285 275 262 254 243 234 234 237 240 244 248 249 247 245 245 248 251 252 249 246 250 255 256 258 263 267 268 270 270 270 271 272 275 278 282 284 287 291 292 291 293 295 295 295 296 294 290 287 287 288 289 289 289 289 290 293 296 296 296 295 293 293 294 296 296 296 295 294 293 292 291 290 288 287 286 285 283 282
254 248 250 250 250 266 279 287 278 263 251 248 247 241 240 243 244 245 248 246 245 246 246 246 248 248 248 248 250 257 263 266 267 268 269 270 271 273 276 278 280 282 283 284 283 283 282 281 282 284 285 286 285 282 282 284 284 283 284 285 288 291 294 298 299 297 295 294 293 293 293 294 293 293 293 294 294 294 293 291 289 289 288 287 284 281
241 243 243 243 245 255 261 252 254 266 274 273 266 256 252 251 245 247 251 244 240 243 245 248 250 250 252 255 255 257 261 263 263 264 267 270 272 275 278 280 282 283 283 281 274 267 264 263 265 269 272 275 278 282 285 288 290 290 290 290 292 294 295 297 297 296 294 292 291 291 290 290 290 291 291 292 293 293 292 291 290 289 288 287 285 284
234 239 238 238 231 234 247 247 253 275 283 276 265 249 239 240 235 240 251 248 240 243 248 252 255 255 256 258 258 259 260 263 265 266 268 272 274 276 277 278 278 277 271 260 253 251 257 261 266 274 278 278 281 286 288 290 292 294 294 294 294 293 293 293 295 295 294 291 290 289 290 290 289 290 290 291 292 292 292 291 290 289 287 283 281 281
226 228 226 236 231 225 244 253 255 263 261 253 252 247 243 247 247 244 254 259 252 253 256 254 254 255 255 256 259 261 263 265 265 269 271 273 274 276 275 266 251 270 282 283 282 284 287 289 290 293 293 290 286 287 288 290 292 292 293 294 293 292 292 292 292 292 291 289 289 290 292 293 291 291 292 293 293 292 293 293 292 290 288 283 279 277
229 231 229 237 241 234 240 248 248 251 251 249 253 253 250 252 253 254 261 263 267 280 279 274 267 261 258 261 262 262 265 266 258 277 301 307 317 321 310 319 322 313 312 311 307 304 303 302 301 299 297 294 289 287 287 287 288 289 290 290 290 290 291 291 291 290 290 290 291 292 293 294 293 293 294 295 296 295 295 294 293 291 288 284 282 279
232 235 232 236 242 240 241 247 249 251 259 258 258 267 270 266 266 264 260 266 333 332 330 334 323 315 316 306 291 268 257 276 289 340 7 14 1 330 319 325 329 324 319 317 314 313 312 309 305 302 299 297 293 290 289 287 286 287 288 287 287 289 290 291 291 292 292 292 292 293 293 293 293 294 295 296 297 297 296 294 292 289 286 284 282 281
237 238 236 240 247 245 245 253 258 255 266 291 312 326 316 299 280 257 262 312 331 325 342 356 347 350 359 351 342 325 318 334 341 334 341 350 341 326 322 324 327 328 329 328 323 319 319 318 315 311 307 303 300 295 293 290 287 287 287 288 288 288 289 290 291 293 293 293 293 294 294 295 296 297 297 297 297 297 296 295 291 287 284 282 280 280
253 246 241 242 253 256 252 258 263 261 328 19 358 353 350 323 263 263 305 327 323 320 341 352 344 346 353 349 343 331 327 336 339 328 334 347 346 336 330 329 331 332 333 335 332 328 325 323 321 317 311 306 302 299 297 295 293 292 292 292 292 290 290 290 291 293 295 295 295 295 295 297 298 298 298 297 297 296 296 295 290 285 282 280 279 279
280 287 275 256 261 271 261 260 261 256 29 25 356 354 23 73 308 320 315 317 324 331 339 341 339 341 342 337 331 326 327 331 329 327 334 338 337 337 334 332 333 332 332 334 333 331 329 326 323 321 318 312 306 302 301 300 299 299 299 299 299 297 295 295 293 293 294 297 297 296 296 298 299 300 299 297 296 295 295 293 289 283 279 277 276 277
214 234 265 262 265 266 255 261 265 255 330 357 348 337 360 320 315 317 310 311 326 335 336 334 333 332 331 327 322 321 324 324 320 321 327 328 327 328 326 326 328 328 329 331 331 331 331 327 322 320 319 318 316 314 311 306 304 305 306 307 307 304 303 302 301 298 298 300 300 297 295 297 300 301 300 297 295 293 291 290 287 282 279 276 275 276
247 273 283 270 250 237 249 268 287 296 304 318 336 318 314 311 305 311 326 326 328 333 336 332 328 327 327 323 319 319 320 318 316 317 319 319 320 319 318 320 322 322 324 327 328 330 331 329 325 322 320 320 322 326 326 320 314 312 313 314 315 314 312 311 310 308 308 310 310 304 298 297 301 303 302 299 296 293 290 288 286 284 282 280 277 277
282 292 293 277 270 278 268 267 278 294 306 314 317 313 310 304 293 339 344 333 328 331 332 328 324 324 324 320 316 314 312 311 312 311 310 314 317 315 314 315 316 317 320 321 324 327 330 332 331 327 324 324 326 331 336 335 331 326 324 324 324 324 324 322 319 319 319 321 322 318 309 304 304 306 306 304 302 299 296 294 292 290 289 287 285 283
278 290 287 267 278 286 273 273 296 314 313 309 307 306 305 295 290 319 325 322 322 323 323 321 318 317 317 315 311 307 304 306 307 304 304 309 310 307 309 313 315 317 319 322 327 330 331 334 336 334 334 334 334 338 343 344 343 341 338 335 334 332 332 331 328 329 332 332 330 329 325 320 316 315 314 314 314 311 307 304 303 302 301 300 299 296
289 324 317 280 273 273 276 291 302 299 297 295 294 302 309 297 295 310 317 319 320 319 318 316 313 309 307 306 303 299 299 302 301 297 300 304 302 300 306 312 315 318 322 326 329 331 334 338 340 342 343 341 341 343 345 346 347 348 347 345 343 341 340 338 336 338 341 341 339 338 336 334 332 328 326 327 326 324 322 319 316 313 312 311 309 307
293 300 289 281 284 278 276 286 290 288 287 283 287 308 313 303 301 310 314 314 315 315 314 312 307 303 300 297 295 294 295 296 294 292 295 297 295 298 305 312 318 323 328 331 332 334 338 341 342 345 345 345 345 345 345 346 347 347 349 351 349 348 348 347 346 348 350 350 349 349 349 347 344 341 340 339 336 334 333 332 328 324 320 317 316 317
280 277 270 273 279 273 272 283 288 289 288 285 294 303 305 302 305 307 306 307 308 307 306 302 301 301 298 293 291 290 290 291 290 289 292 294 295 302 310 317 324 330 332 336 338 338 338 338 341 345 346 345 346 345 344 344 344 343 347 351 353 355 355 355 356 358 0 2 1 360 359 358 354 352 350 348 345 340 339 338 336 333 330 327 329 331
253 258 262 264 265 268 276 283 285 287 286 287 293 299 301 304 306 302 299 301 303 301 298 296 298 300 297 290 286 285 287 288 288 289 293 296 299 308 315 319 328 337 338 338 338 335 335 337 340 344 346 348 347 345 344 343 342 342 344 347 353 358 359 359 1 4 6 8 8 5 3 1 360 359 357 355 353 351 348 346 343 340 339 340 343 345